Retour au catalogue

O3B FM5

ActifCommunicationsMEO
NORAD 39188·PAYLOAD·🇱🇺 Luxembourg

Lancé Jun 25, 2013 depuis Guiana Space Centre

Loading…

Prochains Passages (prochaines 24 heures)

TLE

FraisSource: CelesTrak SupGP

Époque: Sep 13, 2026, 13:00 UTC

1 39188C 13031A   26256.54166667  .00000000  00000+0  00000+0 0  2563
2 39188   0.0824 318.4735 0002492 200.2757 111.5609  5.00115786    13

Suivez O3B FM5 en temps réel avec AllMySat

Download on the App Store